Theta_e
348 348 348 348 348 347 347 347 347 346 346 345 345 345 345 344 344 344 344 344 343 342 342 342 342 341 341 341 341 341 341 341 341 342 341 341 341 340 340 339 339 339 338 338 336 335 334 333 333 332 332 333 333 332 332 331 332 331 330 330 328 328 326 322 320 317 314 313 313 312 312 311 310 310 310 310 309 309 307 306 305 305 304 304 304
348 348 348 348 348 347 347 347 348 348 347 346 346 346 346 345 344 344 344 344 344 343 343 342 342 342 341 341 341 341 341 341 342 342 342 341 341 340 339 338 338 338 337 336 335 334 334 333 332 331 331 331 331 331 330 330 331 331 330 329 328 327 325 322 319 317 313 311 310 310 310 310 310 310 310 309 309 308 307 306 306 305 304 304 305
348 347 347 348 348 348 348 347 348 348 348 348 347 346 346 346 345 345 344 345 345 344 344 343 342 342 342 341 341 341 342 341 342 342 342 342 341 340 339 338 338 337 336 335 335 334 333 332 332 331 331 331 330 329 329 330 330 330 330 329 327 325 324 321 319 317 314 310 309 310 310 309 310 309 309 309 308 307 307 306 306 305 305 304 305
348 348 347 347 348 348 349 348 348 349 349 348 348 347 347 346 346 346 345 345 345 344 344 343 343 343 342 342 341 341 341 341 342 342 342 342 341 339 339 338 337 336 336 335 334 333 332 331 331 331 332 332 331 330 330 329 329 328 328 327 326 325 322 319 317 317 315 311 309 309 309 309 309 308 308 308 307 307 306 306 305 305 305 304 305
350 349 348 348 348 349 349 349 349 350 349 349 349 348 347 346 346 346 346 345 345 345 344 344 343 343 342 342 342 341 341 341 342 342 342 342 341 340 339 338 337 336 335 334 334 333 332 331 330 330 331 331 330 330 329 328 327 326 326 324 323 323 321 317 316 317 316 313 310 309 308 309 308 308 308 307 306 306 306 305 305 304 304 304 305
350 350 348 348 348 348 349 350 350 350 349 349 349 348 348 347 346 346 346 345 345 345 345 344 343 343 343 342 342 341 341 341 342 342 342 342 341 340 339 338 337 335 335 334 333 332 332 331 330 330 330 329 329 328 328 326 325 325 324 322 321 320 318 316 315 316 316 315 313 310 309 309 309 309 307 305 306 306 305 305 305 305 305 305 305
349 349 349 348 348 348 348 348 349 349 349 349 349 349 348 347 347 346 346 346 345 345 344 344 344 343 342 342 341 342 341 341 341 342 342 342 341 340 338 338 336 335 334 334 333 332 331 331 330 330 329 329 328 328 327 326 325 324 322 320 319 318 316 314 314 315 314 315 314 312 311 311 310 308 305 304 305 305 305 305 305 305 305 305 305
347 347 347 347 347 347 347 348 348 348 349 349 349 349 349 348 347 346 346 346 346 345 345 344 344 343 343 342 342 341 341 341 341 341 341 341 341 339 338 337 336 335 334 333 332 332 331 330 330 330 329 329 328 328 327 326 325 323 320 318 317 315 313 313 314 314 314 315 315 313 311 310 309 307 305 304 305 305 305 305 304 304 305 306 306
344 344 344 345 345 346 347 347 346 346 347 348 349 349 349 348 348 347 347 346 345 345 345 344 344 343 343 342 342 341 341 340 340 340 340 340 340 339 338 337 336 335 334 333 332 332 331 330 330 329 329 328 327 327 326 325 325 322 318 316 314 312 312 312 313 314 314 314 314 312 310 308 308 307 306 305 305 305 305 305 304 304 305 306 306
338 341 341 341 343 344 345 345 343 341 342 346 348 349 349 349 348 348 347 347 346 345 345 344 344 343 342 342 341 341 341 340 340 340 340 340 340 339 337 336 335 334 333 333 332 331 331 330 329 328 328 327 326 325 325 324 324 322 318 315 312 310 311 313 313 313 312 311 311 310 308 307 307 307 306 306 306 305 305 306 306 305 306 307 306
331 337 339 339 339 340 341 340 339 338 340 345 348 349 348 348 348 348 348 347 346 345 345 344 344 343 342 342 341 341 341 340 340 339 340 340 339 338 337 336 335 334 333 333 332 331 330 329 329 328 327 325 324 324 323 322 322 321 318 315 311 310 311 312 312 312 310 309 309 309 308 307 307 307 306 306 306 306 306 307 307 306 306 306 306
325 330 336 339 338 339 339 338 339 341 343 347 348 349 348 348 348 348 348 348 347 345 345 344 344 343 342 342 341 341 341 340 340 339 339 340 340 338 337 336 335 334 333 332 331 331 330 329 328 327 325 324 323 322 322 321 320 318 316 313 311 310 310 311 312 311 309 308 308 309 308 308 307 307 306 306 306 306 307 307 306 306 306 306 305
325 325 329 335 338 339 339 340 342 345 347 348 348 348 348 348 348 348 348 348 347 346 345 344 344 343 342 342 342 341 341 340 340 339 339 339 339 339 337 336 335 333 332 332 331 330 330 328 327 325 324 322 322 321 321 320 318 315 313 311 310 310 311 311 312 310 308 307 308 308 308 308 308 307 307 307 307 306 307 307 307 306 307 306 306
326 326 326 330 335 338 339 341 344 346 348 349 348 347 347 347 348 348 348 348 347 346 345 344 344 343 343 342 342 341 341 341 340 340 339 339 339 339 337 336 335 333 332 331 330 330 329 327 326 324 322 321 321 320 319 318 315 313 312 311 310 310 311 310 309 308 307 307 307 307 308 308 308 307 308 307 307 307 307 307 307 307 307 307 308
325 328 328 329 332 336 337 339 343 346 349 349 348 348 347 347 347 348 348 348 347 346 345 345 344 343 343 342 342 341 341 340 341 340 339 338 339 338 337 335 335 333 332 331 330 329 328 327 326 323 321 320 320 319 318 316 314 313 311 311 310 310 310 308 307 307 308 307 307 307 308 307 307 307 308 307 307 307 307 307 307 306 307 307 306
324 327 329 330 332 333 333 334 337 341 346 348 349 348 347 346 347 347 347 348 347 347 345 345 344 343 343 343 342 342 341 341 341 340 339 338 338 338 336 335 334 333 331 330 329 329 328 327 325 322 320 319 319 319 318 316 314 312 311 311 310 309 309 307 307 308 309 307 307 307 308 308 307 307 308 308 307 307 307 306 306 305 305 305 304
324 326 328 330 332 333 332 332 333 335 340 344 347 348 347 346 346 346 347 347 347 347 346 345 344 344 343 343 342 342 342 341 341 340 340 339 338 337 335 334 333 332 331 330 329 328 326 326 324 322 320 319 318 317 317 315 313 312 310 310 309 308 308 307 307 308 309 307 307 308 308 308 307 308 308 308 307 307 307 306 304 303 303 304 304
323 325 326 327 330 332 333 333 333 334 336 339 343 345 346 346 346 346 346 347 347 347 346 345 344 344 343 343 343 342 342 341 341 341 340 339 337 336 335 333 332 331 330 329 328 327 326 325 324 322 319 318 317 316 315 314 313 311 310 309 308 307 307 306 307 307 308 307 307 308 308 308 307 308 308 308 307 307 307 305 302 301 301 303 303
323 323 324 324 326 330 331 333 333 333 335 336 337 340 343 346 346 345 346 346 347 347 346 345 344 344 343 343 343 342 342 342 341 341 340 339 337 336 334 332 331 330 329 327 326 325 325 323 322 321 319 318 317 316 314 313 312 311 309 308 307 306 306 306 306 306 307 306 307 307 308 308 308 307 308 307 307 307 306 304 302 300 299 301 303
324 324 324 323 324 327 330 333 333 333 334 334 334 335 339 343 344 345 345 346 345 345 344 344 344 344 343 343 343 342 342 342 341 341 340 340 337 335 334 332 330 329 328 326 324 323 322 321 320 319 319 318 316 315 314 313 312 311 309 307 307 306 306 305 305 305 306 306 306 306 306 307 307 307 307 307 307 306 305 304 303 300 298 298 300
325 325 324 323 325 330 333 335 334 333 332 333 335 335 336 338 341 343 345 345 343 342 342 343 344 344 343 343 342 342 341 341 341 341 340 340 338 335 333 332 331 329 327 325 324 322 321 320 318 318 318 318 316 315 314 313 312 311 309 308 307 306 305 304 304 304 304 305 305 305 304 304 305 305 306 306 306 306 305 304 302 300 297 297 298
325 324 324 326 330 334 336 336 335 333 332 332 333 334 334 336 338 340 342 344 342 337 336 337 340 342 343 343 342 342 342 341 341 340 340 339 337 335 334 332 331 329 327 325 323 322 321 319 318 317 318 317 316 315 314 313 311 310 309 309 307 305 303 302 302 302 303 303 303 303 302 302 301 302 302 303 304 304 303 301 298 297 296 297 297
325 325 328 333 335 336 336 336 335 334 333 332 332 333 334 335 336 337 338 340 339 334 333 334 336 339 341 342 342 341 341 341 340 340 340 338 337 335 334 332 331 329 327 326 323 321 320 319 318 317 318 317 316 315 314 313 311 309 308 307 305 303 301 300 300 301 300 300 301 301 301 300 299 298 298 298 299 298 298 296 296 297 299 300 301
329 331 334 336 336 335 335 336 334 333 333 332 331 332 334 335 335 334 332 333 333 333 334 335 334 335 338 340 341 341 340 339 338 339 339 338 336 334 333 332 331 330 328 326 324 322 320 319 318 318 318 317 316 315 314 312 310 308 307 305 303 302 300 300 301 301 300 301 303 303 302 300 298 297 295 295 295 296 297 298 300 302 304 304 304
334 336 336 334 334 334 333 334 333 332 332 332 330 330 332 333 333 332 332 331 331 331 333 334 333 333 333 335 337 339 338 337 336 337 338 337 336 333 332 332 331 330 328 326 324 322 321 320 318 318 318 317 315 313 312 311 309 307 306 304 303 302 300 301 303 304 304 305 306 305 302 300 298 297 296 296 298 300 301 303 304 305 305 305 305
334 335 334 333 333 332 332 332 332 331 332 332 330 330 332 331 330 330 331 332 330 330 332 333 333 332 332 333 335 336 335 334 333 333 334 335 334 332 331 331 331 330 328 326 323 322 321 320 319 318 317 315 314 312 311 309 307 307 306 305 304 302 300 303 307 307 307 307 307 305 304 302 301 300 300 301 302 304 304 305 305 305 305 305 306
333 333 333 333 332 332 331 331 331 331 331 329 328 330 332 331 330 330 330 331 331 331 331 332 332 332 332 333 334 334 332 329 328 328 327 327 328 328 329 329 330 329 327 324 322 320 319 318 318 318 316 314 313 312 309 307 307 307 306 305 303 302 302 305 308 309 308 308 307 306 305 304 304 304 304 304 305 305 305 305 305 305 305 305 306
331 332 332 332 331 331 331 330 330 330 329 327 326 328 331 332 331 331 331 331 331 331 331 331 330 331 332 333 334 332 329 326 326 326 326 324 324 324 325 326 326 326 324 322 320 318 318 317 316 314 313 312 310 308 307 306 307 307 306 304 304 305 305 306 307 307 307 307 307 306 306 305 305 305 305 305 304 305 305 305 305 305 306 306 306
329 330 331 331 330 330 329 329 329 329 329 328 327 328 330 331 332 332 332 332 332 331 332 331 330 329 331 333 333 331 327 327 328 329 328 327 325 323 322 322 323 322 322 320 319 317 315 314 312 310 309 309 307 306 305 305 305 306 306 306 306 306 306 306 306 306 306 307 307 306 305 304 304 304 303 303 303 304 305 305 305 305 306 306 306
330 331 331 330 330 328 327 327 327 328 329 328 328 329 331 332 333 333 333 333 333 332 332 332 330 330 331 332 333 332 330 330 330 327 325 324 324 323 323 323 322 320 320 319 318 315 313 310 308 307 307 307 306 305 304 303 303 303 305 305 305 305 305 305 304 304 305 306 306 305 304 303 303 303 302 302 302 303 304 304 304 304 304 305 305
327 330 330 330 329 328 327 326 326 327 328 328 328 330 331 332 333 334 334 334 333 333 333 332 331 332 333 333 333 333 332 332 330 326 324 324 325 326 326 324 322 320 320 318 316 314 311 308 306 306 307 306 306 305 304 303 302 302 303 303 304 304 304 304 303 303 303 303 304 304 303 303 303 303 302 302 302 303 303 303 303 303 304 304 304
324 326 327 326 327 328 328 327 326 326 327 328 328 328 328 328 330 331 332 332 332 333 332 331 331 333 333 331 332 332 332 332 331 329 328 328 330 331 328 324 321 319 318 317 314 311 309 307 306 306 306 306 305 304 303 302 302 302 302 302 303 303 303 303 303 302 302 302 303 304 305 305 305 304 302 302 302 302 302 303 304 304 304 304 304
323 323 322 321 322 325 327 327 326 326 327 327 328 328 327 327 326 327 327 328 329 332 333 332 332 332 332 331 331 332 332 331 330 330 330 331 333 332 328 322 319 318 316 315 313 310 308 308 307 306 306 306 305 304 303 303 303 303 302 301 302 302 303 302 302 302 301 301 302 304 306 307 306 305 303 302 302 302 302 303 304 304 304 304 304
320 318 318 318 319 322 324 325 326 327 327 327 327 328 328 327 327 326 325 324 326 328 331 333 333 333 332 332 332 331 332 331 329 329 331 333 333 329 322 318 316 315 315 314 312 309 308 308 307 306 306 306 305 304 303 303 303 302 301 301 301 301 301 302 302 302 302 302 302 304 306 307 307 306 305 303 303 302 302 302 303 304 303 303 303
316 314 314 315 317 318 321 322 323 324 325 325 325 326 327 328 327 326 324 323 324 325 327 329 330 329 329 331 332 332 332 331 330 330 332 332 327 320 315 311 310 310 312 313 312 310 309 308 307 306 306 305 305 304 303 303 302 301 300 300 300 299 300 301 301 301 302 303 304 305 305 306 306 307 306 305 303 302 301 301 302 303 303 303 303
314 313 312 313 314 316 317 318 319 319 320 322 324 325 326 327 327 326 325 324 323 325 325 324 324 324 324 328 332 333 333 332 331 332 331 326 319 315 312 309 307 307 309 311 311 311 310 309 308 307 306 305 304 303 303 303 302 301 300 300 299 299 299 300 299 299 300 302 304 305 305 306 306 306 306 305 303 302 301 301 301 302 302 302 302
313 312 311 311 313 314 314 315 317 317 318 320 323 325 325 326 325 324 324 323 323 323 322 320 320 320 320 322 325 328 330 328 327 327 325 321 316 315 313 310 308 308 309 310 310 310 309 309 308 307 306 305 304 303 303 303 302 301 301 301 300 299 299 300 299 299 299 301 303 305 305 306 306 306 306 306 304 302 301 301 301 302 302 302 302
313 312 310 310 311 312 312 313 314 316 316 318 321 322 323 324 324 323 322 321 321 321 319 316 317 317 316 316 317 318 318 317 314 312 312 312 313 313 313 311 309 309 309 310 310 310 309 309 308 307 306 305 304 304 303 303 303 302 302 302 302 301 301 301 301 301 302 302 303 305 306 306 306 306 306 306 305 303 302 301 301 302 302 301 301
312 311 310 309 310 310 310 311 312 313 313 314 317 319 320 321 322 322 320 318 317 318 317 316 315 314 312 311 312 311 310 308 306 305 305 306 309 311 312 311 310 310 310 310 309 309 309 309 308 307 307 306 305 304 304 304 303 303 303 303 303 303 302 302 302 303 304 304 305 306 306 307 307 307 306 306 306 304 302 301 301 301 301 301 301
312 311 310 309 309 309 309 309 310 311 311 312 313 315 317 317 317 318 318 316 315 315 315 315 315 314 311 310 311 311 309 307 305 303 303 304 307 310 311 311 310 310 310 310 309 309 309 309 309 308 307 306 305 305 304 304 304 304 304 304 305 305 305 304 304 303 304 304 305 306 307 307 307 306 306 305 305 304 302 301 301 301 302 302 301
312 311 310 310 310 309 309 309 309 309 310 310 311 312 314 315 316 316 316 315 314 315 315 314 314 314 314 314 314 314 313 310 307 305 304 305 306 309 310 311 311 310 310 310 310 309 309 310 309 308 307 306 306 305 304 304 304 305 305 305 305 305 306 306 306 305 305 305 305 306 306 307 306 306 305 304 304 303 302 302 302 302 302 302 302
311 311 310 310 310 310 309 309 309 309 309 309 310 311 312 314 315 315 315 314 314 314 314 313 313 313 314 315 315 314 313 311 308 306 305 305 306 308 309 310 310 310 310 310 310 310 310 310 309 308 307 307 306 305 305 304 304 305 306 306 306 306 306 307 307 307 307 306 306 306 307 307 306 306 305 304 303 303 303 303 303 303 303 302 302
311 312 311 311 310 310 309 309 309 309 308 308 309 309 311 311 312 313 314 314 314 314 313 312 311 311 311 311 312 311 310 309 308 306 305 305 306 307 309 309 310 310 310 310 310 310 310 309 309 308 308 307 307 306 306 305 304 305 306 307 306 307 307 307 308 308 308 308 307 307 307 307 306 305 305 304 304 304 304 303 303 303 303 303 302
309 311 312 312 311 309 309 309 308 308 308 308 307 308 308 309 309 310 311 311 312 312 311 309 310 310 309 308 309 309 308 308 307 305 305 305 306 306 308 309 309 309 309 309 309 309 309 309 309 308 308 308 307 306 306 306 305 305 306 306 307 308 308 308 308 308 308 308 308 307 307 307 306 305 305 304 304 304 304 304 304 304 303 303 302
305 307 309 311 312 310 308 307 307 307 307 307 306 306 306 306 306 307 307 308 308 308 308 307 308 309 308 307 307 308 308 308 306 305 305 305 305 306 307 308 308 309 308 309 309 309 309 309 309 308 308 308 308 307 307 307 307 307 307 307 307 308 309 309 309 309 308 308 307 307 306 306 306 305 305 305 304 304 304 304 304 303 303 303 302
301 302 304 306 309 311 309 307 307 306 306 306 306 305 305 305 305 305 305 305 305 305 305 305 307 307 306 305 306 307 307 307 306 305 305 305 305 305 306 307 308 308 308 308 308 309 309 309 309 309 309 309 309 308 308 308 309 309 308 308 309 309 309 309 309 309 308 307 307 306 306 306 305 305 305 305 304 304 304 304 303 303 302 302 302
297 299 300 302 305 308 310 309 308 307 306 306 306 305 305 304 304 304 304 303 304 304 304 304 304 305 305 305 305 306 306 306 305 305 305 305 305 305 306 307 308 308 308 308 308 308 308 309 309 309 309 310 310 310 309 310 310 310 310 310 310 310 310 310 309 308 308 307 307 307 306 306 305 305 305 304 304 304 303 302 302 301 301 302 302
294 296 297 299 300 304 307 310 310 309 308 307 306 306 305 304 304 304 303 303 303 304 304 304 304 305 305 305 306 306 305 305 305 305 305 305 305 306 307 308 308 308 308 308 308 308 309 309 310 310 310 310 311 311 311 311 311 311 310 310 310 310 309 308 308 308 307 307 307 307 306 306 305 305 304 304 303 302 301 301 301 301 301 301 301
292 293 294 296 298 300 303 307 309 310 309 308 307 306 306 305 304 304 304 304 304 304 305 304 305 305 305 306 305 305 305 305 305 305 305 305 306 307 307 308 308 308 308 308 308 309 309 309 310 310 310 311 311 311 311 311 311 311 310 311 311 311 310 308 308 307 307 307 307 307 306 306 305 304 304 304 303 302 301 300 301 301 301 300 300
290 291 292 293 295 297 300 303 305 307 307 308 308 307 307 306 305 304 304 304 304 305 304 304 305 305 305 304 304 305 305 305 305 306 306 306 307 308 308 308 308 308 308 309 309 309 309 309 310 310 311 311 310 311 311 311 311 311 311 311 311 310 309 308 307 307 307 306 306 306 305 305 305 304 303 302 302 301 301 300 300 300 300 299 299
289 290 291 292 293 294 296 299 300 302 303 304 305 305 306 306 306 305 305 304 304 304 304 304 304 304 304 304 304 305 305 306 306 306 307 307 307 308 308 308 308 308 308 309 309 309 309 310 310 311 311 310 310 311 311 310 310 310 310 309 309 309 308 307 306 305 304 305 305 305 304 304 303 302 301 301 300 300 300 299 299 299 298 298 298
Wind_Speed
44 42 42 40 38 37 37 38 38 39 40 39 38 37 38 40 41 41 40 40 41 40 40 40 41 41 40 38 37 37 37 37 36 35 35 35 35 35 35 35 35 34 33 32 30 29 28 27 26 24 24 24 25 25 24 22 22 22 21 21 21 18 16 13 10 5 3 10 20 24 27 28 27 25 22 19 17 15 14 12 11 11 11 10 8
37 37 37 37 37 37 37 37 37 38 39 39 39 38 37 39 41 40 40 40 41 42 42 41 40 40 40 39 38 37 37 38 37 36 36 35 35 35 36 36 35 34 33 32 31 30 29 28 27 25 24 24 24 25 25 24 23 23 22 23 22 20 19 16 12 8 7 10 17 22 25 26 25 23 21 19 16 14 14 12 12 11 10 10 10
29 30 31 32 34 35 35 36 37 37 37 38 40 40 39 39 40 40 41 41 41 42 42 41 40 39 39 40 39 37 37 38 38 37 37 36 36 36 36 37 36 35 34 34 33 32 30 28 27 25 25 25 25 25 25 25 24 24 24 24 23 21 19 17 14 11 11 12 16 22 24 23 22 21 19 17 14 13 14 13 12 11 10 12 13
31 30 31 32 32 33 34 35 36 37 37 38 39 41 41 40 40 40 41 41 41 41 41 41 40 39 40 40 40 39 38 38 38 38 38 38 37 37 36 36 36 37 36 36 35 33 31 29 27 26 26 27 28 27 26 24 24 24 24 23 22 20 18 17 16 14 14 16 18 21 23 22 20 17 16 15 14 14 14 12 10 11 12 13 14
34 34 34 33 33 34 34 35 36 38 39 39 39 41 42 42 41 40 41 41 41 41 41 41 40 40 42 42 41 40 39 38 38 39 39 38 38 37 37 37 36 37 37 37 36 34 32 31 29 27 26 27 27 27 26 25 24 24 22 21 20 19 18 17 17 17 17 18 19 20 21 21 19 15 14 15 16 16 15 13 11 11 12 12 12
34 36 36 35 35 36 37 37 38 39 40 40 40 41 42 43 42 41 41 41 41 41 41 42 42 42 43 43 41 41 40 39 39 39 39 39 38 37 37 38 37 37 37 37 36 35 33 32 31 30 29 27 26 25 25 25 24 22 21 20 18 18 19 17 17 19 19 19 20 20 20 20 17 15 15 15 16 18 18 15 13 12 12 12 13
32 36 37 38 38 39 39 40 40 40 40 41 41 42 42 42 41 41 41 41 41 41 41 42 43 44 44 43 42 42 41 39 39 39 39 39 39 38 38 38 38 37 37 36 35 35 34 33 32 32 32 31 29 26 25 25 24 22 21 20 18 19 20 19 18 20 20 19 21 20 19 18 16 14 14 12 13 17 18 15 13 11 11 13 14
30 32 35 36 38 41 42 43 43 42 42 42 43 43 43 41 40 40 41 41 42 42 43 43 43 43 43 42 42 42 41 41 41 40 40 40 40 39 38 38 38 37 36 36 35 34 33 33 33 32 32 33 32 30 28 27 25 23 21 21 21 22 22 20 19 20 20 20 21 19 17 18 17 15 14 12 12 14 15 14 12 9 8 9 9
31 32 32 33 36 39 42 43 42 41 41 41 42 44 43 41 41 41 40 41 42 43 44 44 43 41 42 42 41 41 42 43 43 43 41 41 41 40 39 39 39 37 36 35 36 35 34 33 33 31 30 30 30 29 29 29 28 26 24 24 24 23 22 22 21 21 21 19 19 18 17 19 20 18 16 15 13 13 12 10 10 9 8 8 7
31 33 34 36 38 38 39 41 40 38 37 39 41 42 42 41 41 40 41 42 43 43 43 43 42 42 42 42 41 42 44 45 46 45 44 42 41 40 39 39 39 38 36 35 35 35 35 34 32 30 29 28 27 27 28 29 29 28 27 26 26 25 25 24 23 23 23 20 19 19 19 20 21 20 18 16 14 13 10 9 9 8 7 8 8
23 30 35 39 40 39 38 39 39 38 37 38 39 40 40 40 40 40 41 42 42 42 42 42 43 44 44 43 42 43 45 47 47 46 45 45 44 41 40 39 39 39 37 35 35 35 34 34 31 30 28 27 27 27 28 28 28 27 27 27 27 27 27 27 26 24 23 21 20 21 22 23 22 21 19 17 15 13 11 10 9 8 6 6 6
18 23 29 35 38 39 39 39 38 38 38 38 38 39 38 38 39 40 41 42 42 42 42 43 43 44 44 43 43 44 46 47 47 46 46 47 46 44 41 40 38 38 38 37 36 35 34 32 31 29 29 28 28 28 28 27 27 26 27 27 27 27 27 27 27 25 24 23 22 22 24 24 23 22 21 20 18 15 13 12 10 8 7 8 9
22 21 23 29 34 37 38 38 37 37 37 38 39 38 38 38 39 40 41 42 42 42 42 44 44 44 44 43 44 46 46 47 47 47 46 47 48 46 42 41 40 39 39 38 37 36 35 33 31 30 29 29 29 29 29 28 27 27 27 27 26 26 25 25 25 25 24 25 24 24 24 23 23 23 23 20 19 18 16 13 10 8 9 10 11
23 22 21 23 29 36 39 39 39 38 37 37 38 37 38 38 39 40 42 42 42 42 42 43 44 44 44 44 45 46 47 47 48 49 47 47 50 48 43 42 41 40 39 39 38 37 37 36 34 32 31 31 31 31 31 30 29 28 28 28 27 26 25 24 23 22 23 24 24 23 23 22 21 22 21 20 20 21 18 14 11 10 9 10 10
26 26 23 21 24 30 33 35 38 40 39 38 38 38 38 39 39 40 40 41 42 43 43 44 44 45 45 45 45 44 46 47 48 49 49 48 51 49 44 42 42 40 40 40 39 39 39 38 36 34 33 34 33 33 33 32 31 30 29 29 28 27 26 24 23 22 23 23 21 19 20 21 19 19 20 20 21 20 17 15 13 11 9 8 10
26 28 25 23 24 24 27 29 31 34 37 38 38 38 38 38 39 40 40 41 42 43 43 44 44 45 46 46 44 43 45 46 47 49 49 49 51 50 44 42 42 41 40 40 39 40 40 39 38 36 36 36 35 35 34 33 32 32 31 29 28 27 26 24 22 21 21 22 20 16 16 18 17 17 19 20 20 18 16 14 12 10 9 8 9
26 28 27 26 24 22 27 32 33 32 32 34 37 39 40 39 39 40 39 39 40 41 42 43 44 45 46 45 44 44 45 46 47 49 49 50 51 49 44 42 41 40 41 40 39 39 39 40 39 37 37 37 36 36 35 35 34 33 32 30 28 27 26 24 23 20 19 20 19 16 15 16 16 16 18 19 19 18 16 14 11 10 9 7 7
29 28 28 29 27 22 25 33 38 37 33 32 34 36 37 38 39 40 41 40 40 42 42 42 43 45 46 47 47 46 45 46 48 49 49 51 53 50 44 40 39 39 39 39 39 39 39 40 40 39 38 38 38 37 37 36 36 35 34 31 29 28 27 26 24 22 19 19 19 17 16 16 16 16 17 17 17 16 15 13 11 11 10 9 7
29 27 27 30 30 28 25 28 36 41 40 36 36 37 38 39 38 39 40 41 41 41 41 41 41 43 45 48 49 47 45 45 47 48 49 51 53 50 44 40 38 38 37 37 37 38 39 40 40 40 39 39 38 38 38 38 38 37 36 33 30 30 31 30 28 27 24 22 21 19 18 17 17 17 17 16 16 16 14 13 12 12 12 12 10
29 29 29 30 32 32 30 25 26 36 42 43 42 39 38 38 39 39 39 40 40 39 40 40 40 41 42 45 46 46 44 44 46 49 50 51 54 51 45 42 40 38 37 36 35 36 38 39 40 40 39 38 38 38 39 39 39 38 38 36 35 34 34 33 31 30 28 26 24 22 20 19 18 17 18 17 17 17 15 14 14 14 13 15 14
29 29 30 32 32 29 26 23 21 25 33 38 41 41 38 35 35 35 36 37 35 35 36 37 38 39 41 42 43 44 45 46 47 48 50 52 55 53 47 45 44 40 37 36 36 37 37 38 39 40 38 38 38 38 39 39 39 39 39 39 38 37 35 33 31 30 29 27 26 24 22 21 20 19 19 19 19 19 18 17 17 16 15 15 16
27 28 30 31 29 23 20 21 22 24 27 29 32 37 41 39 36 34 33 33 32 31 32 33 34 37 39 40 42 42 44 47 48 49 50 53 57 57 51 47 45 41 38 36 36 37 39 39 41 41 39 38 38 39 39 39 39 40 39 38 37 36 35 34 31 30 29 27 25 24 24 23 23 22 22 22 21 21 20 18 18 17 16 15 15
25 27 26 23 20 17 18 20 22 26 30 31 29 29 32 34 33 30 28 27 28 31 33 33 32 33 35 37 40 41 42 46 47 49 51 53 57 60 55 48 46 44 41 39 38 37 38 40 41 42 41 40 40 39 39 39 40 40 38 36 35 34 34 33 31 30 29 27 25 25 26 26 26 26 25 25 24 22 21 19 18 16 14 14 13
19 19 18 16 16 19 22 22 21 23 28 33 32 29 29 31 30 28 26 25 23 25 29 30 28 27 30 32 35 36 39 43 46 48 52 54 58 61 56 49 48 46 42 40 39 39 40 41 42 43 42 42 41 40 39 39 40 39 36 34 33 33 32 32 31 29 28 27 26 27 27 28 27 27 27 25 22 20 18 16 15 15 14 13 13
13 13 15 17 19 20 21 21 20 18 21 27 31 31 31 29 26 25 26 27 25 24 25 27 27 26 27 29 30 32 35 40 43 47 51 54 58 60 56 49 49 48 43 40 39 41 43 44 43 43 44 43 41 39 39 40 40 39 36 33 33 32 32 31 31 30 29 28 28 27 27 26 25 24 23 20 18 17 16 15 16 17 17 16 16
17 18 19 18 18 17 18 19 19 18 18 20 24 29 32 31 27 25 24 23 22 21 22 23 25 25 26 28 30 30 32 36 40 44 50 54 57 60 56 49 48 48 44 40 39 41 43 44 44 45 45 43 41 40 41 41 40 37 34 33 32 32 33 33 33 32 31 30 28 26 24 22 21 19 17 17 17 18 18 17 18 20 21 21 20
18 18 18 16 13 13 15 18 20 21 20 17 18 23 29 31 30 29 27 23 20 19 20 21 22 23 24 28 31 29 29 32 35 40 46 50 53 57 55 48 45 45 42 39 40 41 42 42 44 45 45 42 40 40 40 40 38 35 34 33 32 33 34 35 35 34 32 30 28 26 22 20 19 19 18 20 20 20 19 21 22 22 21 21 21
17 17 16 14 12 11 13 17 19 21 20 18 22 26 28 28 28 29 30 30 27 24 24 23 22 23 24 27 30 26 26 31 35 40 46 49 50 51 50 45 42 41 39 38 38 39 39 39 40 41 41 39 37 37 38 38 36 35 35 34 34 34 35 34 33 32 31 29 28 26 23 22 22 22 22 23 22 19 18 21 23 21 19 19 21
16 16 14 12 11 12 13 15 17 19 19 20 26 31 32 33 32 31 34 37 37 35 34 32 31 32 33 33 31 24 23 31 40 44 47 50 50 49 47 43 38 36 37 38 38 36 36 37 37 37 37 37 36 34 35 36 35 35 36 36 35 34 35 35 33 30 29 29 28 27 25 24 24 23 23 23 22 19 18 19 19 17 17 19 20
13 13 12 12 12 13 14 15 15 17 19 22 26 30 31 33 35 34 36 40 42 42 41 40 39 40 39 39 39 34 31 35 39 40 41 45 47 47 47 45 39 34 36 38 39 38 36 35 34 36 37 37 35 33 33 34 32 31 32 34 35 35 35 36 35 31 28 28 28 26 25 24 25 25 23 22 21 22 22 21 19 18 18 19 19
11 11 11 13 14 14 14 14 14 15 17 19 22 24 24 26 32 37 38 40 42 43 44 42 41 39 36 34 35 36 36 37 37 37 38 41 44 45 48 48 44 40 40 41 39 38 36 33 32 34 36 35 34 34 34 34 32 30 28 29 32 34 35 36 36 33 30 28 26 25 24 25 25 25 24 21 19 20 23 23 22 21 21 22 21
11 12 13 15 15 14 14 14 13 13 15 17 18 19 17 16 20 28 32 32 34 39 44 46 45 43 40 35 33 34 36 39 40 39 39 40 43 45 46 47 46 44 45 44 40 38 37 35 33 34 34 34 35 36 36 36 37 36 34 32 32 34 36 36 36 35 33 30 27 25 23 24 23 23 23 22 19 18 21 24 25 24 24 24 24
12 13 16 18 17 15 14 13 13 13 14 16 17 18 17 14 13 18 22 23 24 28 35 43 48 48 46 44 42 41 42 42 41 40 40 41 43 44 46 48 47 47 47 45 39 35 35 35 34 35 36 37 38 38 38 39 40 39 38 36 34 34 35 35 34 34 33 32 30 27 24 22 22 22 22 22 19 17 20 23 25 25 25 25 25
16 16 17 17 17 16 16 14 13 14 14 14 16 18 19 19 17 15 15 13 13 17 25 35 44 49 49 48 46 44 45 45 41 40 43 46 47 48 48 46 45 47 49 46 40 36 34 33 33 34 36 37 38 38 38 40 40 38 37 37 36 34 33 33 33 33 33 32 31 30 27 24 21 21 23 22 19 17 18 19 20 22 22 22 21
20 20 20 19 17 17 18 18 16 15 13 10 11 16 20 22 20 17 16 13 12 16 21 28 37 44 47 50 50 47 47 47 44 43 47 51 51 48 45 40 38 41 43 41 38 38 37 34 33 34 35 36 38 39 38 38 37 36 36 36 35 33 32 32 33 33 33 32 31 30 30 27 23 22 23 23 21 19 17 15 16 17 17 17 17
21 21 22 20 18 17 17 18 18 18 15 10 7 12 18 21 20 21 21 17 16 16 16 19 27 32 36 45 52 52 50 49 49 51 53 53 51 48 43 38 37 38 37 35 35 35 34 33 32 32 33 34 34 35 35 35 34 35 34 33 33 32 32 33 34 34 34 33 32 30 30 30 28 25 24 23 20 19 18 16 16 17 16 15 15
20 21 23 21 17 15 16 17 18 19 17 13 9 8 14 18 19 19 18 15 15 15 13 14 19 22 24 31 41 46 47 47 48 51 52 51 50 49 45 41 38 36 35 35 35 33 32 31 31 31 32 32 31 31 32 32 32 33 33 31 31 32 33 33 34 34 34 34 33 32 31 31 30 29 28 26 23 19 17 16 17 17 15 14 13
15 17 21 22 17 15 15 16 16 17 16 14 12 8 9 14 15 14 13 13 14 14 13 11 10 12 16 21 25 30 34 35 34 36 40 45 47 44 40 38 38 37 36 36 36 35 33 32 32 32 33 33 32 33 34 34 32 33 33 32 31 32 33 33 33 34 34 35 35 34 33 32 32 32 31 29 27 24 20 17 17 16 15 14 14
15 16 19 21 19 17 17 18 18 17 16 13 12 9 4 5 8 9 10 12 12 14 15 13 8 8 13 19 22 24 26 26 27 29 33 38 40 37 34 34 35 36 35 35 35 35 34 33 33 34 34 34 35 36 38 37 35 34 34 33 32 32 34 35 35 35 36 36 35 33 32 32 33 33 32 30 28 26 24 21 19 18 17 16 16
20 20 21 21 20 19 19 20 20 19 18 16 13 12 10 6 0 4 7 9 10 12 15 16 13 12 15 20 25 27 26 23 24 26 29 32 33 32 32 33 34 34 34 33 33 34 34 33 34 35 36 36 38 39 39 38 36 34 34 35 35 35 36 37 37 37 38 38 36 33 31 31 32 33 33 31 28 26 24 23 21 20 19 18 18
23 22 23 22 20 19 20 20 20 20 19 19 17 16 14 11 7 2 2 6 9 10 13 14 15 17 19 21 25 28 27 26 27 27 28 30 31 30 32 34 35 36 36 35 35 36 36 35 35 36 36 36 37 37 37 37 37 35 35 37 38 36 35 36 37 38 38 38 37 36 35 33 32 32 33 32 29 26 25 23 23 22 21 20 18
23 23 24 22 20 19 18 18 18 18 18 18 19 18 16 14 11 8 5 5 6 7 9 11 13 17 20 22 25 24 23 26 29 30 30 32 32 30 31 33 36 37 39 39 40 40 39 37 37 37 37 37 38 38 38 40 41 38 36 37 39 38 36 37 38 38 38 37 37 38 38 36 35 33 32 31 29 27 26 25 23 23 22 20 18
22 22 23 21 20 19 18 17 17 17 16 16 17 16 15 14 13 10 8 7 5 5 7 9 12 15 17 19 22 20 19 23 27 28 29 31 32 31 30 31 33 35 37 38 38 37 37 37 36 37 38 39 39 39 40 42 43 41 37 36 38 38 38 39 39 38 38 38 37 38 37 37 36 35 33 32 30 28 26 26 25 24 23 21 19
24 22 22 21 19 19 18 17 16 16 15 15 15 16 15 15 14 12 10 9 7 6 7 8 9 11 12 15 17 15 13 17 23 24 26 28 29 29 29 29 30 31 32 32 31 32 33 34 34 34 35 36 37 39 40 39 40 40 39 38 37 37 38 40 39 36 35 35 36 36 35 35 36 36 34 32 30 28 27 26 25 23 22 22 21
25 25 24 21 18 18 18 17 16 15 15 14 15 15 16 16 15 14 12 11 10 9 8 7 7 9 11 15 17 14 11 14 18 20 21 23 24 25 26 26 27 28 29 29 29 30 32 33 33 32 33 33 36 39 40 38 37 39 39 39 38 38 38 38 36 33 32 31 31 31 31 33 35 35 33 31 29 28 27 25 23 23 23 23 23
26 26 26 23 18 16 16 17 16 15 15 15 15 15 15 16 16 15 14 12 11 10 10 8 7 9 10 13 14 12 10 11 13 14 16 17 18 19 21 22 23 25 26 27 29 31 32 33 34 34 34 33 34 37 39 38 37 38 37 37 37 37 36 35 34 32 32 31 29 28 29 32 32 32 31 30 29 27 24 22 22 23 24 24 24
27 26 26 24 21 18 16 15 16 15 15 15 15 15 16 16 16 16 15 14 13 12 11 10 9 8 8 9 10 9 8 9 11 12 13 15 15 16 17 18 19 21 21 23 26 28 30 31 32 34 35 33 31 33 36 36 34 33 32 30 30 30 30 32 32 32 32 31 28 26 27 29 29 29 28 27 26 24 22 21 22 23 24 25 25
28 26 25 24 24 22 18 15 14 14 15 15 14 15 16 16 16 17 16 15 15 14 14 13 12 10 9 9 9 8 7 8 10 11 13 15 16 17 17 17 18 19 20 22 24 27 28 28 30 32 34 35 34 32 32 31 30 30 30 28 26 23 22 23 26 28 28 27 25 24 25 25 25 26 26 24 23 22 20 20 22 23 23 24 24
28 27 26 25 25 24 22 20 16 15 15 15 14 15 16 16 16 17 17 16 16 15 14 14 14 13 12 11 11 10 9 10 11 12 14 16 18 19 20 20 21 22 23 24 26 28 28 29 30 30 31 35 35 32 28 26 28 30 31 29 26 22 18 19 22 24 25 24 24 23 23 23 23 23 23 22 21 21 19 18 18 20 22 22 21
28 28 27 27 26 24 23 23 22 20 19 18 16 16 17 16 17 17 17 16 16 16 14 13 13 13 13 12 12 12 12 11 11 12 14 16 18 19 20 21 23 24 25 26 28 29 29 29 29 29 30 33 34 31 27 25 27 29 28 26 23 20 18 19 21 22 22 22 22 21 21 21 20 20 19 18 19 20 20 18 17 18 19 19 19
28 29 29 29 28 25 24 24 23 22 23 23 21 20 19 18 18 18 18 18 17 16 15 13 12 12 13 13 13 13 14 14 15 15 15 16 17 18 20 21 22 24 25 24 26 28 28 27 27 28 30 31 31 29 26 24 24 25 24 21 20 20 20 19 17 16 16 17 18 19 19 19 19 18 17 17 17 18 18 19 18 18 17 17 17
Wind_Direction
196 198 199 200 201 201 201 203 204 206 209 211 213 213 213 212 210 208 208 207 207 208 209 210 210 210 210 211 212 211 211 211 212 212 211 210 210 209 208 207 207 208 209 211 213 213 212 212 215 219 221 221 222 224 225 224 226 230 234 237 238 234 228 223 211 186 155 186 190 191 196 197 196 201 208 209 215 229 240 242 241 249 266 274 268
196 198 200 200 201 202 203 205 206 208 209 210 212 213 213 213 211 209 207 207 207 207 209 210 210 210 210 212 212 211 211 211 211 211 211 210 210 209 208 207 206 206 207 208 209 208 209 211 215 220 222 224 226 229 229 225 227 232 232 231 231 229 227 224 214 188 153 158 174 181 189 194 194 200 210 216 222 232 234 230 232 246 263 267 261
201 201 202 202 203 204 205 207 209 210 210 210 211 212 213 213 212 210 208 207 207 208 209 210 210 210 211 212 213 212 211 210 210 210 211 211 210 209 208 208 206 205 205 205 204 204 207 211 216 219 222 225 227 228 228 227 229 229 226 222 221 222 225 226 220 194 165 160 169 174 180 190 197 201 208 219 226 230 227 224 232 246 260 264 262
202 204 205 206 206 205 207 209 210 212 213 212 212 212 213 214 213 211 209 208 207 208 209 210 209 209 211 212 212 212 211 210 209 210 210 211 211 209 208 208 208 207 206 205 204 206 209 212 215 217 219 223 226 227 226 223 221 218 217 217 219 221 223 226 226 209 180 170 175 181 182 187 195 199 206 219 222 220 221 226 237 249 261 265 260
198 201 204 206 206 206 208 209 210 212 213 214 213 213 213 214 214 212 210 208 208 208 208 208 208 208 210 212 212 212 211 210 209 210 210 211 212 211 209 207 208 207 206 206 207 209 211 213 214 214 214 216 219 221 219 215 213 214 216 218 220 224 225 224 224 218 201 186 183 189 192 193 198 205 211 216 214 208 212 224 236 245 253 257 252
197 198 201 203 204 206 207 209 211 212 213 214 214 214 214 214 214 212 211 209 209 208 207 207 208 209 211 213 213 212 211 210 210 210 210 211 211 211 210 208 208 207 207 207 209 211 212 214 215 215 214 214 214 214 213 213 214 215 217 218 218 221 225 224 219 215 212 204 194 193 198 201 207 211 210 213 212 208 211 221 233 240 243 247 249
197 196 199 200 202 206 207 209 212 213 213 214 214 215 215 215 214 213 212 210 209 208 207 207 209 209 211 213 214 213 211 210 211 211 210 210 211 210 209 208 208 208 208 209 210 213 215 216 217 217 218 220 221 220 217 217 218 218 219 217 214 217 221 219 211 206 207 205 198 197 202 207 212 210 206 210 215 218 221 223 229 239 243 247 252
201 198 199 200 201 205 208 210 212 213 214 214 214 214 214 214 214 214 214 212 210 209 208 209 209 209 210 212 214 213 211 210 211 212 211 210 210 209 208 207 207 209 210 211 212 214 216 218 219 220 221 222 225 226 225 223 221 218 217 213 210 213 214 208 201 198 198 198 198 200 201 201 204 205 205 203 200 207 213 216 225 237 235 238 248
206 204 204 206 207 208 209 211 213 214 214 215 215 214 213 212 213 214 214 213 212 211 211 210 209 209 210 212 214 213 211 210 211 211 211 209 207 207 207 206 206 208 209 210 212 214 215 217 218 220 221 221 224 227 227 226 221 215 210 208 208 210 204 197 193 190 188 190 196 198 192 190 193 195 198 203 205 207 212 221 235 239 236 247 259
207 207 208 213 215 215 214 215 216 217 217 218 217 215 212 211 211 213 215 214 213 212 211 210 209 209 210 212 213 212 211 211 212 212 211 208 205 204 205 205 206 207 207 207 209 211 213 215 217 220 222 223 224 224 222 221 219 216 213 210 210 207 199 192 191 190 189 190 194 194 188 189 193 194 197 205 212 218 223 228 227 224 239 260 264
217 209 210 214 217 218 217 218 220 220 220 220 219 217 213 210 210 212 215 215 214 213 211 210 210 210 211 212 212 211 211 212 212 212 212 209 205 203 203 203 205 206 206 206 207 208 210 214 217 219 220 221 221 220 218 216 216 217 217 216 214 212 205 198 195 195 197 199 200 197 194 195 199 202 207 210 210 216 220 214 207 209 227 247 253
257 230 219 217 216 217 218 218 220 221 219 219 220 219 215 211 210 212 214 216 215 213 211 211 211 211 212 212 212 211 212 212 211 211 212 209 205 203 202 202 204 206 206 206 206 206 209 212 214 214 215 216 215 214 213 213 214 213 213 214 215 215 214 210 206 204 205 204 203 202 200 201 203 206 209 209 210 212 208 200 201 212 226 240 252
293 267 244 228 221 218 218 218 219 220 218 217 219 218 216 213 211 211 213 215 215 214 212 211 211 212 212 212 213 213 213 212 210 210 212 210 206 203 202 202 204 206 206 206 206 207 208 209 208 208 210 212 211 210 208 208 208 207 207 209 210 211 213 214 214 214 212 208 206 207 206 206 209 209 207 207 207 203 198 200 209 221 231 240 249
307 290 273 253 235 224 220 218 217 218 217 216 217 217 216 215 213 212 212 213 214 214 213 212 211 212 212 213 213 214 214 214 212 212 213 211 207 204 201 201 204 206 206 206 206 206 206 206 205 204 205 207 208 207 205 203 201 201 202 203 204 206 207 209 211 213 212 211 213 214 213 214 216 211 205 205 205 200 200 204 203 206 221 231 244
308 297 286 277 259 239 227 223 219 216 216 215 215 216 216 216 215 214 213 213 213 214 213 213 212 212 213 214 214 214 215 215 213 213 214 211 206 203 201 201 203 205 206 205 205 205 206 207 207 205 204 204 206 205 203 201 198 198 198 199 200 203 205 208 209 209 210 211 214 215 214 213 211 205 199 199 200 199 203 205 199 205 225 240 256
299 293 285 280 273 256 242 240 235 225 218 214 213 214 215 215 214 214 214 214 214 215 214 214 213 212 213 214 215 216 216 216 214 212 212 210 204 200 200 200 201 203 203 203 204 205 205 207 208 206 204 204 204 205 203 201 198 197 197 196 198 200 202 206 206 206 209 210 209 209 207 202 201 198 193 192 195 197 199 201 206 219 233 247 262
282 282 280 277 273 259 243 242 244 240 230 220 215 214 214 214 214 213 214 214 214 214 215 214 214 213 214 214 214 216 217 216 214 212 211 207 201 198 198 199 199 201 202 201 202 202 204 206 207 206 205 204 203 203 203 201 199 198 196 194 193 194 197 200 200 200 205 207 205 204 201 195 193 192 190 192 197 201 203 204 211 219 224 235 253
266 267 271 274 273 262 242 232 233 237 237 230 224 221 215 213 214 213 213 214 215 215 214 215 215 214 214 214 214 215 217 217 215 211 209 206 201 198 198 198 197 199 200 200 200 200 202 206 208 207 206 205 203 202 202 201 199 198 196 192 190 191 193 196 197 197 199 199 197 196 193 191 192 192 194 199 205 211 215 215 211 209 213 222 236
259 262 268 273 274 270 258 238 226 226 230 231 231 230 223 216 213 214 214 215 216 216 215 214 215 215 215 215 215 215 216 217 215 211 209 206 202 198 197 196 196 197 197 197 197 198 201 204 207 208 207 205 203 202 202 202 201 200 197 192 189 192 196 198 198 198 197 196 196 195 192 192 194 195 201 208 214 221 226 223 219 220 223 226 229
264 268 271 273 273 271 269 260 235 222 223 226 228 230 230 224 216 212 214 216 216 217 217 215 215 217 217 216 216 215 216 217 215 211 209 207 201 197 195 195 195 196 195 194 193 194 197 200 203 206 207 205 203 203 205 205 204 202 199 195 195 199 201 201 201 203 202 201 202 202 200 199 199 200 205 210 215 222 225 227 232 237 235 233 230
267 270 273 273 268 262 261 263 252 229 224 227 226 224 228 232 228 218 215 216 215 216 219 218 216 217 218 218 218 216 216 218 216 211 209 207 201 197 196 196 196 194 193 192 192 192 193 196 197 201 205 206 204 204 207 209 208 206 203 203 207 208 204 201 203 206 206 205 205 207 207 208 208 208 211 215 218 222 227 232 240 244 243 240 235
269 273 274 266 257 254 258 262 260 250 240 238 235 227 223 228 233 229 222 217 212 211 219 224 222 219 218 218 219 217 216 219 218 210 207 206 202 198 198 199 197 194 191 192 193 193 193 194 195 197 203 207 206 206 208 210 210 210 209 210 213 212 207 205 205 206 207 207 207 210 212 214 215 215 218 221 223 227 232 237 243 247 245 241 236
281 281 274 264 259 267 276 274 267 259 248 242 242 238 230 227 229 231 230 223 210 205 212 221 226 226 222 218 218 218 216 218 218 212 207 206 202 200 200 200 198 195 193 194 194 193 193 194 195 196 202 207 208 207 208 209 209 210 210 210 211 210 208 207 205 204 206 207 209 212 215 216 218 219 221 225 227 231 235 238 240 239 232 228 228
290 279 267 267 277 283 284 281 271 260 248 239 234 236 235 230 224 225 231 233 223 211 211 214 219 227 229 223 218 216 215 216 216 213 208 205 203 201 200 200 200 198 197 197 196 194 194 195 195 196 202 208 209 206 205 206 207 208 207 206 206 205 204 204 202 202 204 205 206 210 213 215 218 220 224 228 230 231 231 228 223 218 217 221 225
274 260 253 258 267 273 279 280 270 256 244 233 227 226 229 230 225 221 223 226 224 222 218 214 213 220 228 229 224 217 212 213 213 211 209 206 203 201 200 202 202 200 198 199 197 194 195 197 197 199 204 207 205 202 202 204 205 205 203 201 200 199 199 200 199 198 198 200 203 207 211 214 217 220 223 225 223 220 218 215 214 218 222 227 231
250 248 252 255 261 268 275 276 270 258 241 225 219 221 223 224 225 225 225 224 224 228 228 220 214 215 220 226 227 218 209 208 209 207 206 205 202 200 200 202 204 201 199 199 197 195 196 198 198 200 202 203 200 198 198 201 202 201 199 197 197 197 196 196 195 194 195 197 201 205 207 209 211 212 213 215 215 215 216 216 220 226 228 230 233
253 249 254 262 272 276 277 278 275 265 250 231 225 231 229 221 215 215 218 218 217 225 233 229 222 216 215 221 225 218 204 202 205 203 201 200 200 199 199 200 200 199 197 196 194 193 195 197 198 199 199 198 197 196 196 196 196 196 195 195 195 195 195 197 197 196 195 197 201 205 206 205 206 208 212 218 224 226 226 226 227 229 231 232 234
277 268 270 278 287 287 281 280 278 271 257 234 224 230 234 227 217 212 214 215 210 209 217 225 227 225 221 221 222 214 198 197 203 203 200 198 197 197 198 198 196 193 191 190 189 189 191 192 193 193 191 189 188 190 191 191 191 192 193 193 193 193 195 197 199 199 200 201 203 205 205 205 207 212 216 221 226 227 222 222 225 226 223 221 224
290 283 281 283 288 291 285 279 275 270 259 240 228 228 229 227 222 216 216 218 215 210 211 216 219 221 222 221 218 211 199 200 207 208 203 198 196 195 196 197 194 189 189 188 183 180 182 184 183 182 181 180 182 185 188 189 189 189 191 191 191 193 194 195 196 198 201 202 202 201 202 205 211 215 218 221 224 217 204 201 207 210 206 207 215
311 295 287 281 284 290 287 282 278 269 255 243 237 236 232 227 222 219 217 216 214 212 212 214 216 217 218 217 217 215 209 207 209 209 203 198 196 195 195 196 193 189 190 188 182 177 176 177 177 177 177 179 183 185 187 188 188 188 190 191 191 191 193 195 195 195 195 196 197 199 202 206 212 215 216 218 219 215 208 204 208 213 211 211 219
346 322 304 293 290 290 285 280 279 273 260 248 240 238 235 228 224 224 223 220 216 214 214 214 216 218 217 216 215 215 213 210 208 206 201 198 197 198 198 197 194 192 191 186 178 175 176 175 176 179 180 181 185 187 186 186 186 187 192 195 194 193 194 196 198 197 195 194 196 201 206 210 212 214 214 213 211 210 210 211 214 218 220 221 225
9 355 344 331 317 304 294 284 277 272 268 260 250 245 246 238 227 224 226 225 222 219 216 214 216 218 217 214 210 209 210 210 208 205 201 198 199 201 200 197 193 193 190 184 178 177 178 177 178 181 182 183 186 188 187 185 184 187 192 197 198 198 197 198 199 201 201 200 199 202 208 210 210 209 208 207 208 211 211 211 211 213 217 221 225
24 10 359 351 341 328 313 294 273 260 259 258 254 252 251 243 228 222 225 229 229 222 216 215 215 215 213 211 209 207 207 207 206 203 199 196 197 200 200 196 193 190 186 181 180 181 181 182 183 184 184 185 187 188 187 186 187 189 192 196 199 201 200 199 199 201 204 205 204 206 208 208 206 204 200 200 207 216 214 210 210 211 215 219 220
27 17 7 359 351 342 335 322 292 268 260 254 249 248 247 241 232 219 213 219 228 223 215 213 214 213 211 208 208 208 206 203 201 198 194 194 196 196 193 189 187 187 186 184 184 183 184 187 188 187 187 188 189 188 187 187 189 191 192 194 199 203 201 198 197 199 202 204 206 209 209 207 205 204 203 205 212 217 211 205 205 209 213 214 212
16 13 11 8 2 353 345 337 319 300 292 277 255 248 247 245 242 230 212 203 206 212 213 212 213 212 208 204 204 206 204 201 198 195 193 193 192 187 179 172 174 181 186 188 188 187 188 191 191 190 190 190 190 190 188 186 189 192 191 192 197 201 201 199 200 200 201 203 206 209 210 210 207 204 205 209 214 214 211 202 195 197 200 199 199
6 6 7 8 8 2 350 339 330 326 327 325 293 259 249 244 240 233 225 213 202 202 204 202 204 206 203 199 200 202 203 201 197 193 191 189 184 177 171 170 173 180 186 190 191 191 193 193 192 192 192 192 192 191 188 185 189 193 192 192 196 199 199 200 202 204 205 206 207 208 209 211 211 209 208 211 213 214 214 208 199 197 198 197 198
2 0 2 5 8 6 358 349 342 340 342 346 340 290 250 234 225 221 218 206 194 191 182 173 181 188 190 192 195 196 197 196 193 188 186 184 180 177 177 176 177 180 185 190 192 193 193 194 193 193 192 192 192 189 185 186 191 193 191 192 198 200 199 200 202 204 206 208 209 210 210 211 213 213 213 215 216 214 213 209 204 204 207 208 213
2 358 1 6 11 10 5 2 356 351 351 356 356 330 252 222 209 202 193 181 177 173 157 149 165 175 173 180 188 189 186 183 178 175 175 176 176 178 180 179 179 182 187 190 192 192 192 192 193 193 192 191 188 185 184 187 192 193 191 192 198 202 202 201 202 204 206 208 209 211 213 213 213 212 212 215 218 217 212 208 205 205 208 214 224
3 5 6 10 16 14 10 9 4 357 357 2 5 357 317 225 202 191 180 170 165 156 143 138 150 167 165 168 174 173 168 163 160 162 167 172 176 179 179 180 182 186 189 191 192 192 192 192 192 192 191 189 187 185 187 190 192 192 191 191 194 199 202 203 203 204 206 208 208 209 211 211 210 209 209 212 216 217 214 210 209 210 212 215 222
2 7 8 11 17 18 18 17 10 1 357 359 4 9 10 8 350 188 181 171 161 149 141 142 153 172 175 170 167 165 161 158 160 165 169 173 177 179 179 181 184 188 190 192 193 193 194 194 193 191 191 190 188 187 190 191 191 191 192 191 192 197 201 204 205 206 207 209 208 207 206 206 204 204 205 207 210 213 214 212 212 213 214 215 220
1 4 5 8 14 17 20 20 16 8 3 1 3 8 10 10 11 23 151 150 143 141 141 144 156 173 181 177 172 171 169 167 168 172 174 176 179 181 182 185 187 190 192 193 194 195 196 196 195 193 191 190 189 188 188 189 190 192 194 194 196 200 201 203 205 207 208 209 209 207 206 205 202 200 201 202 203 206 208 209 211 212 212 214 221
-0 3 5 7 9 13 17 18 15 14 12 10 10 12 12 12 11 10 25 65 96 124 135 139 153 172 182 181 177 176 176 175 174 176 178 180 183 186 187 188 190 193 195 195 196 197 197 196 195 193 190 189 188 186 186 189 193 194 195 195 199 202 204 204 205 206 206 207 208 208 207 206 203 201 200 200 200 202 204 206 209 210 210 213 222
358 0 6 11 12 13 17 19 18 18 16 15 18 20 20 22 23 21 29 43 59 97 119 130 151 170 181 182 177 175 177 178 178 179 180 182 185 188 191 193 195 197 198 199 199 198 196 195 194 193 191 191 188 186 188 193 196 197 198 199 200 202 203 202 201 202 203 205 207 207 206 206 204 201 200 199 200 202 204 206 208 210 213 219 225
357 357 2 10 15 19 22 23 23 23 19 18 24 29 29 29 29 31 41 51 60 82 101 120 147 163 171 174 172 170 175 181 183 183 184 184 187 190 192 194 197 199 201 201 200 197 196 195 193 190 189 190 190 189 192 196 198 199 201 204 203 202 201 198 196 197 200 203 204 205 205 205 202 200 199 200 202 202 203 205 208 213 219 226 228
2 2 3 6 13 23 29 29 28 29 26 22 23 28 33 35 33 33 40 49 57 71 86 105 133 152 165 173 174 176 182 187 189 189 187 187 189 191 193 195 198 200 201 200 197 196 195 194 191 187 186 189 191 191 193 196 199 201 203 205 205 203 201 199 199 198 198 197 196 196 198 199 198 198 199 201 201 201 202 206 213 220 224 226 225
6 7 7 7 8 19 31 34 33 33 32 29 26 25 29 35 37 37 40 46 54 66 77 92 120 145 161 170 174 178 182 183 185 188 188 189 191 192 194 197 198 199 200 199 196 195 194 192 189 188 187 187 188 189 189 192 195 198 202 206 209 208 207 206 205 202 198 195 191 189 190 193 195 197 199 200 200 202 205 211 218 222 224 222 220
8 10 10 9 9 13 23 33 38 38 36 35 34 31 30 33 39 41 43 47 53 64 72 80 96 122 143 157 166 171 169 169 176 183 188 190 191 191 193 196 196 196 196 194 191 191 191 189 187 186 185 182 181 183 186 189 192 195 197 201 204 206 207 208 206 202 198 198 196 192 191 192 194 195 197 198 200 203 209 215 221 223 222 220 219
9 9 10 12 13 14 16 22 34 41 39 39 43 42 38 38 40 42 46 50 53 60 70 78 87 100 113 129 146 155 156 164 174 181 184 186 185 184 186 189 187 185 184 184 185 187 188 187 185 183 181 178 178 180 184 188 191 190 187 187 187 187 189 193 197 198 197 198 199 198 196 195 195 196 198 199 202 205 209 216 221 222 219 217 217
9 9 10 12 14 16 18 21 28 35 37 39 46 49 49 50 49 48 52 56 56 58 67 78 90 103 114 124 137 147 152 159 167 171 175 179 180 180 180 181 179 177 176 178 181 183 184 186 188 186 183 182 183 184 185 186 188 188 188 190 193 192 187 186 191 195 195 196 198 200 200 198 198 201 202 204 207 210 211 214 217 216 213 211 211
10 11 13 13 14 18 24 28 33 37 37 37 39 41 46 54 58 58 60 62 62 65 72 79 90 103 109 114 125 132 136 140 145 151 161 170 173 174 175 176 175 175 174 175 177 180 181 184 188 190 188 186 185 185 184 183 186 190 191 192 194 194 189 187 190 192 193 194 196 197 197 197 198 201 204 207 212 216 216 215 213 211 211 212 214
11 13 15 16 17 20 25 28 32 37 39 40 38 36 38 45 52 58 61 62 64 69 73 75 83 93 98 102 111 114 114 117 121 126 137 150 158 163 166 169 172 173 172 171 172 175 178 179 181 184 185 183 181 181 181 180 181 183 182 180 181 183 185 187 190 191 193 196 196 196 195 195 196 198 202 205 209 214 217 218 218 218 218 219 221